DW4691 Weather Reports


time (UTC)temp
F
wind
direction
speed
knots
gust
knots
rain 1hr
in
rain 24hr
in
rain mn
in
humidity
%
barometer
mb
20260904181603 77 0 0.0 0.0 0.06 0.07 0.07 91 1015.2
20260904180103 77 0 0.0 0.0 0.05 0.06 0.06 89 1015.1
20260904174556 79 0 0.0 0.0 0.03 0.04 0.04 87 1015.7
20260904173056 82 0 0.0 0.0 0.00 0.01 0.01 81 1016.1
20260904171551 85 0 0.0 0.9 0.00 0.01 0.01 76 1015.2
20260904170058 89 0 0.0 2.6 0.00 0.01 0.01 71 1015.2
20260904164554 92 0 0.0 0.0 0.00 0.01 0.01 68 1015.1
20260904163052 91 0 0.0 0.0 0.00 0.01 0.01 71 1015.1
20260904161558 90 0 0.0 0.0 0.00 0.01 0.01 74 1014.8
20260904154555 89 0 0.0 0.0 0.00 0.01 0.01 77 1014.6
20260904153053 88 0 0.0 0.0 0.00 0.01 0.01 83 1014.6
20260904151551 86 0 0.0 0.0 0.00 0.01 0.01 84 1014.5
20260904150057 85 0 0.0 2.6 0.00 0.01 0.01 86 1014.5
20260904144609 83 0 0.0 0.0 0.00 0.01 0.01 89 1014.6
20260904143059 82 0 0.0 0.0 0.00 0.01 0.01 91 1014.5
20260904141554 81 0 0.0 0.0 0.00 0.01 0.01 93 1014.4
20260904140101 81 0 0.0 0.0 0.00 0.01 0.01 94 1014.4
20260904134559 80 0 0.0 0.0 0.00 0.01 0.01 94 1014.3
20260904133101 80 0 0.0 0.0 0.00 0.01 0.01 94 1014.3
20260904131553 79 0 0.0 0.0 0.00 0.01 0.01 94 1014.2
20260904130047 79 0 0.0 0.0 0.00 0.01 0.01 94 1014.1
20260904124603 78 0 0.0 0.0 0.00 0.01 0.01 93 1013.9
20260904123053 78 0 0.0 0.0 0.00 0.01 0.01 93 1013.7
20260904121553 78 0 0.0 0.0 0.00 0.01 0.01 93 1013.6
20260904120106 78 0 0.0 0.0 0.00 0.01 0.01 93 1013.4
20260904114556 78 0 0.0 0.0 0.00 0.01 0.01 93 1013.3
20260904113054 79 0 0.0 0.0 0.00 0.01 0.01 93 1013.3
20260904111555 79 0 0.0 0.0 0.01 0.01 0.01 93 1013.3
20260904110051 79 0 0.0 0.0 0.01 0.01 0.01 93 1013.1
20260904104557 79 0 0.0 0.0 0.01 0.01 0.01 93 1013.0
20260904103053 79 0 0.0 0.0 0.01 0.01 0.01 93 1012.9
20260904101552 79 0 0.0 0.0 0.00 0.00 0.00 93 1012.9
20260904100053 79 0 0.0 0.0 0.00 0.00 0.00 93 1012.9
20260904094557 79 0 0.0 0.0 0.00 0.00 0.00 93 1012.8
20260904093100 79 0 0.0 0.0 0.00 0.00 0.00 93 1012.7
20260904091601 79 0 0.0 0.0 0.00 0.00 0.00 93 1012.5
20260904090056 79 0 0.0 0.0 0.00 0.00 0.00 93 1012.4
20260904084557 79 0 0.0 0.0 0.00 0.00 0.00 93 1012.5
20260904083052 79 0 0.0 0.0 0.00 0.00 0.00 93 1012.5
20260904081558 79 0 0.0 0.0 0.00 0.00 0.00 93 1012.7
20260904080053 79 0 0.0 0.0 0.00 0.00 0.00 93 1012.6
20260904074601 79 0 0.0 0.0 0.00 0.00 0.00 93 1012.8
20260904073057 79 0 0.0 0.0 0.00 0.00 0.00 93 1012.9
20260904071623 79 0 0.0 0.0 0.00 0.00 0.00 93 1013.1
20260904070115 79 0 0.0 0.0 0.00 0.00 0.00 93 1013.0
20260904064608 79 0 0.0 0.0 0.00 0.00 0.00 93 1013.2
20260904063058 79 0 0.0 0.0 0.00 0.00 0.00 93 1013.0
20260904061554 79 0 0.0 0.0 0.00 0.00 0.00 93 1013.1
20260904060109 79 0 0.0 0.0 0.00 0.00 0.00 93 1013.3
20260904054555 79 0 0.0 0.0 0.00 0.01 0.00 93 1013.1
20260904053108 79 0 0.0 0.0 0.00 0.01 0.00 93 1013.0
20260904051555 79 0 0.0 0.0 0.00 0.01 0.00 93 1013.0
20260904050053 79 0 0.0 0.0 0.00 0.01 0.00 92 1012.9
20260904044608 79 0 0.0 0.0 0.00 0.01 0.01 92 1013.0
20260904043057 79 0 0.0 0.0 0.00 0.01 0.01 92 1012.9
20260904041602 79 0 0.0 0.0 0.00 0.01 0.01 92 1013.0
20260904040057 79 0 0.0 0.0 0.00 0.01 0.01 92 1013.1
20260904034551 79 0 0.0 0.0 0.00 0.01 0.01 92 1013.0
20260904033104 79 0 0.0 0.0 0.00 0.01 0.01 92 1013.0
20260904031606 79 0 0.0 0.0 0.00 0.01 0.01 92 1013.0
20260904030054 79 0 0.0 0.0 0.00 0.01 0.01 92 1013.0
20260904024552 79 0 0.0 0.0 0.00 0.01 0.01 92 1012.9
20260904023058 79 0 0.0 0.0 0.00 0.01 0.01 91 1012.9
20260904021555 79 0 0.0 0.0 0.00 0.01 0.01 91 1012.5
20260904020053 79 0 0.0 0.0 0.00 0.01 0.01 91 1012.4
20260904014612 79 0 0.0 0.0 0.00 0.01 0.01 91 1012.3
20260904013053 80 0 0.0 0.0 0.00 0.01 0.01 91 1012.1
20260904011555 80 0 0.0 0.0 0.00 0.01 0.01 90 1012.1
20260904010053 80 0 0.0 0.0 0.00 0.01 0.01 90 1011.9
20260904004600 80 0 0.0 0.0 0.00 0.01 0.01 90 1012.0
20260904003055 81 0 0.0 0.0 0.00 0.01 0.01 89 1012.1
20260904001551 81 0 0.0 0.0 0.00 0.01 0.01 89 1012.2
20260904000052 81 0 0.0 0.0 0.00 0.01 0.01 89 1012.3
20260903234557 81 0 0.0 0.0 0.00 0.01 0.01 89 1012.4
20260903233055 81 0 0.0 0.0 0.00 0.01 0.01 89 1012.6
20260903231605 80 0 0.0 0.0 0.00 0.01 0.01 89 1012.8
20260903230054 80 0 0.0 0.0 0.00 0.01 0.01 89 1012.6
20260903224601 79 0 0.0 0.0 0.00 0.01 0.01 90 1012.6
20260903223056 79 0 0.0 0.0 0.00 0.01 0.01 91 1012.4
20260903221553 79 0 0.0 0.0 0.00 0.01 0.01 91 1012.5
20260903220054 78 0 0.0 0.0 0.00 0.01 0.01 91 1013.0
20260903214557 78 0 0.0 0.0 0.00 0.01 0.01 90 1013.1
20260903213056 78 0 0.0 0.0 0.00 0.01 0.01 91 1013.1
20260903211553 78 0 0.0 0.0 0.00 0.01 0.01 90 1013.3
20260903210053 78 0 0.0 0.0 0.00 0.01 0.01 91 1013.6
20260903204552 78 0 0.0 0.0 0.00 0.01 0.01 91 1013.6
20260903203056 79 0 0.0 0.0 0.00 0.01 0.01 92 1013.7
20260903201554 79 0 0.0 0.0 0.00 0.01 0.01 92 1013.7
20260903200053 78 0 0.0 0.0 0.00 0.01 0.01 91 1013.6
20260903194547 78 0 0.0 0.0 0.00 0.01 0.01 91 1013.5
20260903193054 78 0 0.0 0.0 0.00 0.01 0.01 91 1014.1
20260903191552 79 0 0.0 0.0 0.00 0.01 0.01 89 1014.3
20260903190104 80 0 0.0 0.0 0.00 0.01 0.01 87 1014.1
20260903184555 81 144 0.0 0.9 0.00 0.01 0.01 85 1014.8
20260903183054 82 0 0.0 0.0 0.00 0.01 0.01 85 1014.7